• In Deutschland
  • Länderverzeichnis
  • Für 7 Tage
  • Wassertemperatur
  • Satellitenkarten
  • Wetterkarte
  • Widgets
  • user-avatar
    Anmelden

    Stündliche Wetter Lohne

    Heute, 21 April, Samstag

    Zeit Temperatur Niederschläge Wind Luftdruck Luftfeuchtigkeit
    00:00 +13°C° 0 mm 2 m/S 762 mmHg 82%
    01:00 +13°C° 0 mm 2 m/S 762 mmHg 86%
    02:00 +12°C° 0 mm 2 m/S 762 mmHg 87%
    03:00 +10°C° 0 mm 2 m/S 762 mmHg 88%
    04:00 +10°C° 0 mm 2 m/S 762 mmHg 89%
    05:00 +10°C° 0 mm 2 m/S 762 mmHg 88%
    06:00 +10°C° 0 mm 2 m/S 763 mmHg 86%
    07:00 +10°C° 0 mm 2 m/S 763 mmHg 85%
    08:00 +13°C° 0 mm 2 m/S 763 mmHg 77%
    09:00 +15°C° 0 mm 2 m/S 763 mmHg 70%
    10:00 +16°C° 0 mm 2 m/S 763 mmHg 62%
    11:00 +17°C° 0 mm 2 m/S 763 mmHg 58%
    12:00 +18°C° 0 mm 3 m/S 763 mmHg 53%
    13:00 +19°C° 0 mm 3 m/S 763 mmHg 49%
    14:00 +19°C° 0 mm 3 m/S 763 mmHg 49%
    15:00 +19°C° 0 mm 3 m/S 762 mmHg 50%
    16:00 +19°C° 0 mm 3 m/S 762 mmHg 50%
    17:00 +18°C° 0 mm 3 m/S 762 mmHg 57%
    18:00 +16°C° 0 mm 3 m/S 762 mmHg 64%
    19:00 +15°C° 0 mm 2 m/S 762 mmHg 71%
    20:00 +13°C° 0 mm 2 m/S 762 mmHg 73%
    21:00 +12°C° 0 mm 2 m/S 762 mmHg 75%
    22:00 +10°C° 0 mm 2 m/S 762 mmHg 77%
    23:00 +9°C° 0 mm 2 m/S 762 mmHg 76%

    Morgen, 22 April, Sonntag

    Zeit Temperatur Niederschläge Wind Luftdruck Luftfeuchtigkeit
    00:00 +9°C° 0 mm 2 m/S 762 mmHg 75%
    01:00 +9°C° 0 mm 2 m/S 761 mmHg 74%
    02:00 +9°C° 0 mm 2 m/S 761 mmHg 73%
    03:00 +9°C° 0 mm 2 m/S 760 mmHg 73%
    04:00 +8°C° 0 mm 2 m/S 760 mmHg 72%
    05:00 +9°C° 0 mm 3 m/S 760 mmHg 72%
    06:00 +10°C° 0 mm 3 m/S 759 mmHg 72%
    07:00 +11°C° 0 mm 3 m/S 759 mmHg 73%
    08:00 +13°C° 0 mm 3 m/S 758 mmHg 71%
    09:00 +15°C° 0 mm 4 m/S 758 mmHg 69%
    10:00 +19°C° 0 mm 4 m/S 757 mmHg 67%
    11:00 +21°C° 0,2 mm 4 m/S 757 mmHg 64%
    12:00 +22°C° 0,2 mm 4 m/S 756 mmHg 61%
    13:00 +25°C° 0,2 mm 4 m/S 756 mmHg 58%
    14:00 +26°C° 0,2 mm 4 m/S 755 mmHg 57%
    15:00 +26°C° 0,2 mm 4 m/S 755 mmHg 55%
    16:00 +26°C° 0,2 mm 4 m/S 754 mmHg 54%
    17:00 +25°C° 0,6 mm 3 m/S 754 mmHg 61%
    18:00 +22°C° 0,6 mm 3 m/S 754 mmHg 67%
    19:00 +20°C° 0,6 mm 2 m/S 754 mmHg 74%
    20:00 +19°C° 0,6 mm 2 m/S 754 mmHg 78%
    21:00 +18°C° 0,6 mm 2 m/S 754 mmHg 82%
    22:00 +16°C° 0,6 mm 1 m/S 754 mmHg 85%
    23:00 +16°C° 0,1 mm 2 m/S 754 mmHg 87%

    übermorgen, 23 April, Montag

    Zeit Temperatur Niederschläge Wind Luftdruck Luftfeuchtigkeit
    00:00 +16°C° 0,1 mm 2 m/S 754 mmHg 88%
    01:00 +14°C° 0,1 mm 3 m/S 754 mmHg 89%
    02:00 +14°C° 0 mm 3 m/S 754 mmHg 89%
    03:00 +13°C° 0 mm 3 m/S 754 mmHg 90%
    04:00 +13°C° 0 mm 3 m/S 754 mmHg 91%
    05:00 +13°C° 0 mm 4 m/S 754 mmHg 90%
    06:00 +13°C° 0 mm 4 m/S 754 mmHg 89%
    07:00 +12°C° 0 mm 4 m/S 754 mmHg 89%
    08:00 +13°C° 0 mm 4 m/S 755 mmHg 85%
    09:00 +14°C° 0 mm 5 m/S 755 mmHg 81%
    10:00 +15°C° 0 mm 5 m/S 755 mmHg 77%
    11:00 +15°C° 0,2 mm 6 m/S 755 mmHg 72%
    12:00 +16°C° 0,2 mm 6 m/S 755 mmHg 67%
    13:00 +16°C° 0,2 mm 7 m/S 756 mmHg 62%
    14:00 +16°C° 0,1 mm 7 m/S 756 mmHg 62%
    15:00 +16°C° 0,1 mm 6 m/S 756 mmHg 62%
    16:00 +15°C° 0,1 mm 6 m/S 756 mmHg 62%
    17:00 +14°C° 0 mm 6 m/S 757 mmHg 66%
    18:00 +13°C° 0 mm 5 m/S 757 mmHg 69%
    19:00 +12°C° 0 mm 4 m/S 758 mmHg 72%
    20:00 +11°C° 0 mm 4 m/S 758 mmHg 75%
    21:00 +10°C° 0 mm 3 m/S 758 mmHg 78%
    22:00 +8°C° 0 mm 3 m/S 758 mmHg 81%
    23:00 +8°C° 0 mm 3 m/S 758 mmHg 81%

    24 April, Dienstag

    Zeit Temperatur Niederschläge Wind Luftdruck Luftfeuchtigkeit
    00:00 +8°C° 0 mm 3 m/S 758 mmHg 81%
    01:00 +8°C° 0 mm 3 m/S 758 mmHg 81%
    02:00 +8°C° 0 mm 4 m/S 758 mmHg 81%
    03:00 +8°C° 0 mm 4 m/S 758 mmHg 81%
    04:00 +9°C° 0 mm 5 m/S 758 mmHg 81%
    05:00 +9°C° 0,2 mm 5 m/S 757 mmHg 82%
    06:00 +9°C° 0,2 mm 6 m/S 757 mmHg 83%
    07:00 +9°C° 0,2 mm 6 m/S 757 mmHg 84%
    08:00 +9°C° 0,3 mm 6 m/S 757 mmHg 85%
    09:00 +9°C° 0,3 mm 6 m/S 757 mmHg 86%
    10:00 +9°C° 0,3 mm 7 m/S 757 mmHg 87%
    11:00 +9°C° 0,4 mm 6 m/S 757 mmHg 87%
    12:00 +10°C° 0,4 mm 6 m/S 757 mmHg 88%
    13:00 +10°C° 0,4 mm 6 m/S 757 mmHg 88%
    14:00 +11°C° 0,3 mm 6 m/S 757 mmHg 87%
    15:00 +12°C° 0,3 mm 5 m/S 757 mmHg 87%
    16:00 +13°C° 0,3 mm 5 m/S 756 mmHg 86%
    17:00 +12°C° 0,1 mm 4 m/S 756 mmHg 89%
    18:00 +12°C° 0,1 mm 3 m/S 756 mmHg 91%
    19:00 +13°C° 0,1 mm 2 m/S 755 mmHg 93%
    20:00 +12°C° 0,9 mm 3 m/S 755 mmHg 94%
    21:00 +12°C° 0,9 mm 3 m/S 755 mmHg 94%
    22:00 +12°C° 0,9 mm 4 m/S 754 mmHg 94%
    23:00 +12°C° 0,3 mm 4 m/S 754 mmHg 94%

    25 April, Mittwoch

    Zeit Temperatur Niederschläge Wind Luftdruck Luftfeuchtigkeit
    00:00 +12°C° 0,3 mm 4 m/S 753 mmHg 93%
    01:00 +12°C° 0,3 mm 4 m/S 753 mmHg 93%
    02:00 +10°C° 0,6 mm 5 m/S 753 mmHg 93%
    03:00 +10°C° 0,6 mm 5 m/S 752 mmHg 93%
    04:00 +9°C° 0,6 mm 5 m/S 752 mmHg 93%
    05:00 +8°C° 0,2 mm 5 m/S 753 mmHg 92%
    06:00 +8°C° 0,2 mm 4 m/S 753 mmHg 92%
    07:00 +7°C° 0,2 mm 4 m/S 753 mmHg 91%
    08:00 +8°C° 0 mm 4 m/S 754 mmHg 86%
    09:00 +10°C° 0 mm 3 m/S 755 mmHg 80%
    10:00 +12°C° 0 mm 3 m/S 755 mmHg 74%
    11:00 +12°C° 0,2 mm 4 m/S 755 mmHg 71%
    12:00 +13°C° 0,2 mm 4 m/S 756 mmHg 69%
    13:00 +14°C° 0,2 mm 5 m/S 756 mmHg 66%
    14:00 +14°C° 0,3 mm 5 m/S 756 mmHg 66%
    15:00 +14°C° 0,3 mm 5 m/S 755 mmHg 65%
    16:00 +14°C° 0,3 mm 5 m/S 755 mmHg 65%
    17:00 +13°C° 0,3 mm 4 m/S 755 mmHg 70%
    18:00 +12°C° 0,3 mm 4 m/S 755 mmHg 75%
    19:00 +11°C° 0,3 mm 3 m/S 755 mmHg 80%
    20:00 +10°C° 0 mm 3 m/S 756 mmHg 82%
    21:00 +9°C° 0 mm 2 m/S 756 mmHg 85%
    22:00 +8°C° 0 mm 2 m/S 756 mmHg 88%
    23:00 +8°C° 0 mm 3 m/S 756 mmHg 88%

    26 April, Donnerstag

    Zeit Temperatur Niederschläge Wind Luftdruck Luftfeuchtigkeit
    00:00 +8°C° 0 mm 3 m/S 756 mmHg 87%
    01:00 +7°C° 0 mm 3 m/S 756 mmHg 87%
    02:00 +6°C° 0,1 mm 4 m/S 755 mmHg 87%
    03:00 +6°C° 0,1 mm 4 m/S 755 mmHg 88%
    04:00 +6°C° 0,1 mm 5 m/S 754 mmHg 89%
    05:00 +6°C° 0,7 mm 5 m/S 754 mmHg 89%
    06:00 +5°C° 0,7 mm 6 m/S 754 mmHg 90%
    07:00 +7°C° 0,7 mm 6 m/S 754 mmHg 90%
    08:00 +8°C° 0,3 mm 7 m/S 755 mmHg 85%
    09:00 +9°C° 0,3 mm 8 m/S 755 mmHg 79%
    10:00 +10°C° 0,3 mm 8 m/S 755 mmHg 73%
    11:00 +10°C° 0,5 mm 8 m/S 756 mmHg 72%
    12:00 +10°C° 0,5 mm 8 m/S 756 mmHg 70%
    13:00 +11°C° 0,5 mm 8 m/S 756 mmHg 68%
    14:00 +10°C° 0,4 mm 8 m/S 756 mmHg 67%
    15:00 +10°C° 0,4 mm 8 m/S 756 mmHg 67%
    16:00 +10°C° 0,4 mm 7 m/S 756 mmHg 66%
    17:00 +9°C° 0,2 mm 6 m/S 756 mmHg 70%
    18:00 +9°C° 0,2 mm 5 m/S 756 mmHg 73%
    19:00 +8°C° 0,2 mm 4 m/S 756 mmHg 76%
    20:00 +7°C° 0 mm 4 m/S 757 mmHg 78%
    21:00 +6°C° 0 mm 4 m/S 757 mmHg 81%
    22:00 +5°C° 0 mm 4 m/S 757 mmHg 83%
    23:00 +5°C° 0 mm 4 m/S 757 mmHg 83%
    Mehr zeigen